Weather History for Greenville, MS

Change the Weather History Date:

Saturday, July 6, 2013

  Actual Average Record
Temperature  
Mean Temperature 79 °F 82 °F  
Max Temperature 90 °F 92 °F 103 °F (1977)
Min Temperature 68 °F 72 °F 55 °F (1985)
Degree Days  
Heating Degree Days 0 0  
Month to date heating degree days 0 0  
Since 1 June heating degree days 0 0  
Since 1 July heating degree days 0 0  
Cooling Degree Days 14 17  
Month to date cooling degree days 72 100  
Year to date cooling degree days 814 842  
Since 1 June cooling degree days 531 520  
Growing Degree Days 28 (Base 50)    
Moisture  
Dew Point 69 °F    
Average Humidity 72    
Maximum Humidity 97    
Minimum Humidity 47    
Precipitation  
Precipitation 0.00 in 0.15 in 2.70 in (1934)
Month to date precipitation 0.00 0.91  
Year to date precipitation 26.21 29.21  
Sea Level Pressure  
Sea Level Pressure 30.03 in    
Wind  
Wind Speed 6 mph (SE)    
Max Wind Speed 13 mph    
Max Gust Speed 17 mph    
Visibility 8 miles    
Events Fog    
T = Trace of Precipitation, MM = Missing Value Source: NWS Daily Summary

Daily Weather History Graph

Daily Weather History Graph

Search for Another Location

Airport:

Trip Planner

Search our weather history database for the weather conditions in past years. The results will help you decide how hot, cold, wet, or windy it might be!

Date:

Astronomy

Jul. 06, 2013 Rise Set
Actual Time 6:00 AM CDT 8:17 PM CDT
Civil Twilight 5:31 AM CDT 8:45 PM CDT
Nautical Twilight 4:56 AM CDT 9:20 PM CDT
Astronomical Twilight 4:18 AM CDT 9:59 PM CDT
Moon 4:43 AM CDT (7/6) 7:01 PM CDT (7/6)
Length of Visible Light 15h 14m
Length of Day
14h 17m
Waning Crescent, 2% of the Moon is Illuminated
Jul 6
Waning Crescent
Jul 8
New
Jul 15
First Quarter
Jul 22
Full
Jul 29
Last Quarter

Hourly Weather History & Observations

Time (CDT) Temp. Heat Index Dew Point Humidity Pressure Visibility Wind Dir Wind Speed Gust Speed Precip Events Conditions
12:53 AM 73.9 °F - 70.0 °F 87% 30.01 in 10.0 mi SSE 9.2 mph - N/A   Clear
1:53 AM 72.0 °F - 70.0 °F 93% 30.02 in 9.0 mi SSE 4.6 mph - N/A   Clear
2:53 AM 71.1 °F - 69.1 °F 93% 30.01 in 8.0 mi South 3.5 mph - N/A   Clear
3:53 AM 71.1 °F - 69.1 °F 93% 30.02 in 8.0 mi SE 3.5 mph - N/A   Clear
4:53 AM 70.0 °F - 68.0 °F 93% 30.03 in 8.0 mi Calm Calm - N/A   Clear
5:53 AM 69.1 °F - 66.9 °F 93% 30.04 in 7.0 mi East 3.5 mph - N/A   Clear
6:19 AM 68.0 °F - 66.2 °F 94% 30.03 in 6.0 mi Calm Calm - N/A   Mostly Cloudy
6:37 AM 69.8 °F - 68.0 °F 94% 30.03 in 6.0 mi Calm Calm - N/A   Overcast
6:53 AM 71.1 °F - 69.1 °F 93% 30.04 in 4.0 mi ESE 4.6 mph - N/A   Overcast
6:57 AM 71.6 °F - 69.8 °F 94% 30.03 in 1.8 mi East 4.6 mph - N/A   Overcast
7:04 AM 71.6 °F - 69.8 °F 94% 30.03 in 0.2 mi ESE 4.6 mph - N/A Fog Fog
7:15 AM 71.6 °F - 69.8 °F 94% 30.03 in 0.2 mi ESE 4.6 mph - N/A Fog Fog
7:22 AM 71.6 °F - 69.8 °F 94% 30.03 in 0.2 mi East 4.6 mph - N/A Fog Fog
7:38 AM 71.6 °F - 69.8 °F 94% 30.03 in 0.8 mi ESE 4.6 mph - N/A   Mist
7:49 AM 71.6 °F - 71.6 °F 100% 30.03 in 2.0 mi ESE 4.6 mph - N/A   Overcast
7:53 AM 73.0 °F - 71.1 °F 93% 30.05 in 3.0 mi ESE 4.6 mph - N/A   Overcast
8:24 AM 73.4 °F - 69.8 °F 88% 30.04 in 9.0 mi SE 5.8 mph - N/A   Overcast
8:37 AM 75.2 °F - 69.8 °F 83% 30.04 in 10.0 mi SSE 5.8 mph - N/A   Overcast
8:53 AM 75.9 °F - 70.0 °F 82% 30.06 in 10.0 mi SE 6.9 mph - N/A   Overcast
9:41 AM 77.0 °F - 69.8 °F 78% 30.05 in 10.0 mi SSE 4.6 mph - N/A   Overcast
9:53 AM 77.0 °F - 70.0 °F 79% 30.06 in 9.0 mi South 6.9 mph - N/A   Overcast
10:02 AM 78.8 °F - 69.8 °F 74% 30.05 in 10.0 mi ESE 4.6 mph - N/A   Overcast
10:19 AM 80.6 °F 83.9 °F 69.8 °F 70% 30.05 in 10.0 mi Variable 6.9 mph - N/A   Mostly Cloudy
10:43 AM 78.8 °F - 68.0 °F 69% 30.05 in 10.0 mi ESE 3.5 mph - N/A   Mostly Cloudy
10:53 AM 79.0 °F - 69.1 °F 72% 30.06 in 10.0 mi South 4.6 mph - N/A   Overcast
11:15 AM 80.6 °F 83.9 °F 69.8 °F 70% 30.05 in 10.0 mi SSE 4.6 mph - N/A   Overcast
11:53 AM 82.0 °F 85.5 °F 69.1 °F 65% 30.06 in 10.0 mi Variable 3.5 mph - N/A   Overcast
12:53 PM 86.0 °F 90.1 °F 69.1 °F 57% 30.04 in 10.0 mi East 8.1 mph - N/A   Scattered Clouds
1:53 PM 84.9 °F 88.2 °F 68.0 °F 57% 30.02 in 10.0 mi SE 8.1 mph - N/A   Mostly Cloudy
2:53 PM 88.0 °F 90.7 °F 66.9 °F 49% 30.00 in 10.0 mi SE 9.2 mph - N/A   Partly Cloudy
3:53 PM 89.1 °F 92.1 °F 66.9 °F 48% 29.99 in 10.0 mi SE 11.5 mph - N/A   Clear
4:53 PM 89.1 °F 92.9 °F 68.0 °F 50% 29.97 in 10.0 mi SSE 8.1 mph - N/A   Partly Cloudy
5:53 PM 88.0 °F 92.1 °F 69.1 °F 53% 29.97 in 10.0 mi SE 8.1 mph - N/A   Partly Cloudy
6:53 PM 87.1 °F 89.9 °F 66.9 °F 51% 29.98 in 10.0 mi SE 9.2 mph - N/A   Clear
7:53 PM 82.9 °F 86.5 °F 69.1 °F 63% 29.98 in 10.0 mi SSE 4.6 mph - N/A   Clear
8:53 PM 81.0 °F 84.4 °F 70.0 °F 69% 30.00 in 10.0 mi ESE 4.6 mph - N/A   Scattered Clouds
9:53 PM 80.1 °F 83.2 °F 70.0 °F 71% 30.01 in 10.0 mi SE 6.9 mph - N/A   Scattered Clouds
10:53 PM 77.0 °F - 71.1 °F 82% 30.02 in 10.0 mi SE 4.6 mph - N/A   Clear
11:53 PM 78.1 °F - 71.1 °F 79% 30.03 in 10.0 mi SE 9.2 mph - N/A   Clear